�������C�����ː����j�^�v���󋵏��
Date,Time,Cs137(Bq/L),Cs134(Bq/L),�S��(Bq/L)
2016/11/30,00:00,0.98,0.096,ND
2016/11/30,00:10,0.95,0.096,ND
2016/11/30,00:20,0.89,0.096,ND
2016/11/30,00:30,0.86,0.087,ND
2016/11/30,00:40,0.85,0.087,ND
2016/11/30,00:50,0.83,0.081,ND
2016/11/30,01:00,0.83,0.071,ND
2016/11/30,01:10,0.81,0.061,ND
2016/11/30,01:20,0.70,0.073,ND
2016/11/30,01:30,0.69,0.073,ND
2016/11/30,01:40,0.68,0.067,ND
2016/11/30,01:50,0.67,0.061,ND
2016/11/30,02:00,0.67,0.062,ND
2016/11/30,02:10,0.67,0.060,ND
2016/11/30,02:20,0.61,0.077,ND
2016/11/30,02:30,0.58,0.093,ND
2016/11/30,02:40,0.60,0.088,ND
2016/11/30,02:50,0.58,0.093,ND
2016/11/30,03:00,0.72,0.061,ND
2016/11/30,03:10,0.73,0.052,ND
2016/11/30,03:20,0.73,0.050,ND
2016/11/30,03:30,0.76,0.038,ND
2016/11/30,03:40,0.76,0.050,ND
2016/11/30,03:50,0.77,0.057,ND
2016/11/30,04:00,0.79,0.053,ND
2016/11/30,04:10,0.78,0.064,ND
2016/11/30,04:20,0.79,0.062,ND
2016/11/30,04:30,0.64,0.089,ND
2016/11/30,04:40,0.66,0.073,ND
2016/11/30,04:50,0.64,0.076,ND
2016/11/30,05:00,0.62,0.077,ND
2016/11/30,05:10,0.65,0.077,ND
2016/11/30,05:20,0.82,0.047,ND
2016/11/30,05:30,0.83,0.047,ND
2016/11/30,05:40,0.81,0.052,ND
2016/11/30,05:50,0.82,0.044,ND
2016/11/30,06:00,0.82,0.061,ND
2016/11/30,06:10,0.71,0.082,ND
2016/11/30,06:20,0.85,0.058,ND
2016/11/30,06:30,0.88,0.063,ND
2016/11/30,06:40,0.89,0.074,ND
2016/11/30,06:50,0.90,0.078,ND
2016/11/30,07:00,0.93,0.073,ND
2016/11/30,07:10,0.93,0.072,ND
2016/11/30,07:20,0.92,0.064,ND
2016/11/30,07:30,0.93,0.053,ND
2016/11/30,07:40,0.92,0.041,ND
2016/11/30,07:50,0.94,0.043,ND
2016/11/30,08:00,0.79,0.071,ND
2016/11/30,08:10,0.73,0.085,ND
2016/11/30,08:20,0.74,0.091,ND
2016/11/30,08:30,0.73,0.097,ND
2016/11/30,08:40,0.76,0.10,ND
2016/11/30,08:50,0.74,0.10,ND
2016/11/30,09:00,0.86,0.058,ND
2016/11/30,09:10,0.87,0.059,ND
2016/11/30,09:20,0.77,0.095,ND
2016/11/30,09:30,0.78,0.096,ND
2016/11/30,09:40,0.77,0.092,ND
2016/11/30,09:50,0.78,0.097,ND
2016/11/30,10:00,0.77,0.091,ND
2016/11/30,10:10,0.79,0.082,ND
2016/11/30,10:20,0.74,0.098,ND
2016/11/30,10:30,0.73,0.097,ND
2016/11/30,10:40,0.72,0.10,ND
2016/11/30,10:50,0.71,0.10,ND
2016/11/30,11:00,0.73,0.10,ND
2016/11/30,11:10,0.74,0.11,ND
2016/11/30,11:20,0.77,0.095,ND
2016/11/30,11:30,0.76,0.086,ND
2016/11/30,11:40,0.90,0.058,ND
2016/11/30,11:50,0.91,0.047,ND
2016/11/30,12:00,0.89,0.047,ND
2016/11/30,12:10,0.86,0.039,ND
2016/11/30,12:20,0.84,0.037,ND
2016/11/30,12:30,0.64,0.085,ND
2016/11/30,12:40,0.64,0.069,ND
2016/11/30,12:50,0.61,0.068,ND
2016/11/30,13:00,0.57,0.074,ND
2016/11/30,13:10,0.56,0.082,ND
2016/11/30,13:20,0.55,0.079,ND
2016/11/30,13:30,0.57,0.063,ND
2016/11/30,13:40,0.54,0.068,ND
2016/11/30,13:50,0.66,0.045,ND
2016/11/30,14:00,0.52,0.070,ND
2016/11/30,14:10,0.51,0.064,ND
2016/11/30,14:20,0.62,0.045,ND
2016/11/30,14:30,0.62,0.041,ND
2016/11/30,14:40,0.61,0.045,ND
2016/11/30,14:50,0.63,0.035,ND
2016/11/30,15:00,0.63,0.034,ND
2016/11/30,15:10,0.64,0.033,ND
2016/11/30,15:20,0.65,0.030,ND
2016/11/30,15:30,0.66,0.034,11
2016/11/30,15:40,0.72,ND,9.7
2016/11/30,15:50,0.70,ND,ND
2016/11/30,16:00,0.70,ND,ND
2016/11/30,16:10,0.69,ND,ND
2016/11/30,16:20,0.66,0.028,ND
2016/11/30,16:30,0.65,0.029,ND
2016/11/30,16:40,0.63,0.045,ND
2016/11/30,16:50,0.62,0.040,ND
2016/11/30,17:00,0.63,0.043,ND
2016/11/30,17:10,0.63,0.038,ND
2016/11/30,17:20,0.66,ND,ND
2016/11/30,17:30,0.61,0.033,ND
2016/11/30,17:40,0.61,0.033,ND
2016/11/30,17:50,0.62,0.040,ND
2016/11/30,18:00,0.64,0.039,ND
2016/11/30,18:10,0.64,0.050,ND
2016/11/30,18:20,0.66,0.053,ND
2016/11/30,18:30,0.67,0.045,ND
2016/11/30,18:40,0.69,0.045,ND
2016/11/30,18:50,0.71,0.034,ND
2016/11/30,19:00,0.70,0.043,ND
2016/11/30,19:10,0.71,0.035,ND
2016/11/30,19:20,0.71,0.035,ND
2016/11/30,19:30,0.71,0.039,ND
2016/11/30,19:40,0.71,0.045,ND
2016/11/30,19:50,0.73,0.050,ND
2016/11/30,20:00,0.74,0.045,ND
2016/11/30,20:10,0.77,0.045,ND
2016/11/30,20:20,0.79,0.059,ND
2016/11/30,20:30,0.82,0.060,ND
2016/11/30,20:40,0.83,0.054,ND
2016/11/30,20:50,0.85,0.054,ND
2016/11/30,21:00,0.88,0.050,ND
2016/11/30,21:10,0.89,0.060,ND
2016/11/30,21:20,0.88,0.053,ND
2016/11/30,21:30,0.90,0.054,ND
2016/11/30,21:40,0.89,0.063,ND
2016/11/30,21:50,0.92,0.064,ND
2016/11/30,22:00,0.90,0.069,ND
2016/11/30,22:10,0.89,0.068,ND
2016/11/30,22:20,0.89,0.068,ND
2016/11/30,22:30,0.89,0.059,ND
2016/11/30,22:40,0.92,0.044,ND
2016/11/30,22:50,0.90,0.047,ND
2016/11/30,23:00,0.88,0.049,ND
2016/11/30,23:10,0.90,0.048,ND
2016/11/30,23:20,0.90,0.057,ND
2016/11/30,23:30,0.88,0.068,ND
2016/11/30,23:40,0.86,0.076,ND
2016/11/30,23:50,0.83,0.088,ND
